Location: Unspecified
(44.4377°N, 88.0525°W)
Time: 06:13:42
(UTC-06:00)

Okean 3 - Visible Passes

Search period start: 25 January 2015 00:00
Search period end: 04 February 2015 00:00
Orbit: 583 x 606 km, 82.5° (Epoch: 24 January)

Date Brightness Start Highest point End Pass type
(mag) Time Alt. Az. Time Alt. Az. Time Alt. Az.
26 Jan 5.5 18:56:19 10° N 18:57:19 16° N 18:57:19 16° N visible
27 Jan 4.6 19:05:53 10° N 19:08:21 33° N 19:08:21 33° N visible
28 Jan 5.3 17:40:13 10° NE 17:41:54 12° ENE 17:43:30 11° E visible
28 Jan 3.7 19:15:34 10° NNW 19:19:52 67° W 19:20:22 61° SW visible
29 Jan 4.9 17:48:53 10° NNE 17:51:48 18° ENE 17:54:50 10° ESE visible
29 Jan 4.6 19:25:21 10° NNW 19:29:28 43° W 19:33:31 10° SSW visible
30 Jan 4.4 17:58:01 10° NNE 18:01:39 26° ENE 18:05:18 10° SE visible
30 Jan 5.5 19:35:17 10° NNW 19:39:02 28° W 19:42:40 10° SSW visible
31 Jan 6.7 06:28:43 10° ESE 06:30:51 14° E 06:33:11 10° NE visible
31 Jan 3.9 18:07:22 10° N 18:11:26 39° ENE 18:15:28 10° SE visible
31 Jan 6.2 19:45:27 10° NW 19:48:33 19° W 19:51:30 10° SW visible
01 Feb 6.4 06:37:10 10° SE 06:40:21 21° E 06:43:39 10° NE visible
01 Feb 3.5 18:16:51 10° N 18:21:09 60° E 18:25:23 10° SSE visible
01 Feb 6.7 19:56:05 10° WNW 19:58:02 13° W 19:59:46 10° WSW visible
02 Feb 3.5 18:26:28 10° N 18:30:48 88° W 18:35:05 10° S visible
03 Feb 4.2 18:36:10 10° NNW 18:40:25 56° W 18:44:36 10° S visible
